Hourly Weather Roundup
Issued by NWS

Home | Current Version | Previous Version | Text Only | Print | Product List | Glossary On
Versions: 1 2 3 4 5 6 7 8 9 10 11 12 13 14 15 16 17 18 19 20 21 22 23 24 25 26 27 28 29 30 31 32 33 34 35 36 37 38 39 40 41 42 43 44 45 46 47 48 49 50
000
NZUS43 KILX 252110
HWRCRS

NWR Hourly Weather Roundup
National Weather Service Lincoln IL
400 PM CDT MON SEP 25 2017


CITY           SKY/WX    TMP DP  RH WIND       PRES   REMARKS
Champaign      MOSUNNY   89  57  33 S9        29.94F HX  88
Lawrenceville  PTSUNNY   90  64  42 S8        29.94F HX  91
Peoria         SUNNY     90  58  33 SE6       29.90F HX  89
Springfield    SUNNY     93  61  34 SE7       29.90F HX  93
$$


CITY           SKY/WX    TMP DP  RH WIND       PRES   REMARKS
Bloomington    MOSUNNY   89  61  38 SE9       29.94F HX  89
Danville       SUNNY     91  57  32 SE6       29.92F HX  89
Decatur        SUNNY     91  57  31 S8        29.92F HX  89
Effingham      SUNNY     91  62  36 SE7       29.94F HX  91
Flora          SUNNY     92  62  36 S12       29.93F HX  93
Galesburg      MOSUNNY   90  61  38 S8        29.90F HX  90
Jacksonville   MOSUNNY   90  59  35 S9        29.90S HX  89
Lacon          SUNNY     91  58  32 SW7       29.89F HX  90
La Salle       PTSUNNY   87  58  37 S7        29.91F HX  86
Lincoln        MOSUNNY   92  60  33 S7        29.91F HX  92
Litchfield     MOSUNNY   88  64  43 S8        29.93S HX  89

CITY           SKY/WX    TMP DP  RH WIND       PRES   REMARKS
Macomb         PTSUNNY   89  60  38 SE7       29.92F HX  88
Mattoon        MOSUNNY   90  61  37 MISG      29.93F HX  90
Moline         SUNNY     91  62  37 S10       29.87F HX  91
Olney          SUNNY     89  55  31 CALM      29.94F HX  87
Paris          SUNNY     91  59  34 W5        29.94F HX  90
Pontiac        SUNNY     91  58  32 SE8       29.92F HX  90
Quincy         SUNNY     86  63  45 S8        29.90S HX  87
Rantoul        MOSUNNY   92  58  31 S3        29.93F HX  90
Robinson       SUNNY     91  63  39 SW3       29.94F HX  91
Taylorville    MOSUNNY   88  61  40 S5        29.92F HX  88
Terre Haute    CLOUDY    91  60  35 VRB3      29.94F HX  90
$$


CITY           SKY/WX    TMP DP  RH WIND       PRES   REMARKS
Burlington     LGT RAIN  87  68  52 SW8       29.88F HX  90
Chicago        MOSUNNY   91  55  29 SE12      29.91F HX  89
Des Moines     CLOUDY    75  64  69 NW16      29.85R THUNDER
Evansville     MOSUNNY   89  64  43 E7        29.94F HX  90
Indianapolis   MOSUNNY   89  57  33 E5        29.97F HX  88
Kansas City    PTSUNNY   84  66  54 S13       29.87F HX  86
Milwaukee      MOSUNNY   85  64  49 SE15      29.93F HX  86
St Louis       MOSUNNY   89  61  38 S7        29.91F HX  89
$$





USA.gov is the U.S. government's official web portal to all federal, state and local government web resources and services.